This is the latest recevied weather packets stored in our database for station/object KV4OP. If no packets are shown the sender has not sent any weather packets the latest 10 day(s).
| Time | Temp. | Humidity | Pressure | Rain* | Wind** | Luminosity | Snow |
|---|---|---|---|---|---|---|---|
| 1788546609 | 33.33° C | 71% | 1015.4 hPa | 0 mm | - | - | - |
| 1788546312 | 33.33° C | 69% | 1015.5 hPa | 0 mm | - | - | - |
| 1788546019 | 33.89° C | 70% | 1015.5 hPa | 0 mm | - | - | - |
| 1788545709 | 33.33° C | 71% | 1015.5 hPa | 0 mm | - | - | - |
| 1788545409 | 33.89° C | 68% | 1015.7 hPa | 0 mm | - | - | - |
| 1788545109 | 33.33° C | 71% | 1015.8 hPa | 0 mm | - | - | - |
| 1788544818 | 33.33° C | 74% | 1015.7 hPa | 0 mm | - | - | - |
| 1788544509 | 33.33° C | 70% | 1015.8 hPa | 0 mm | - | - | - |
| 1788544209 | 33.33° C | 70% | 1015.9 hPa | 0 mm | - | - | - |
| 1788543909 | 33.33° C | 72% | 1016 hPa | 0 mm | - | - | - |
| 1788543618 | 32.78° C | 69% | 1015.9 hPa | 0 mm | - | - | - |
| 1788543309 | 33.33° C | 72% | 1016 hPa | 0 mm | - | - | - |
| 1788543009 | 32.78° C | 71% | 1016.1 hPa | 0 mm | - | - | - |
| 1788542710 | 33.33° C | 71% | 1016.2 hPa | 0 mm | - | - | - |
| 1788542418 | 33.33° C | 72% | 1016.3 hPa | 0 mm | - | - | - |
| 1788542109 | 33.33° C | 74% | 1016.3 hPa | 0 mm | - | - | - |
| 1788541809 | 32.22° C | 72% | 1016.4 hPa | 0 mm | - | - | - |
| 1788541510 | 33.33° C | 73% | 1016.6 hPa | 0 mm | - | - | - |
| 1788541219 | 33.33° C | 73% | 1016.7 hPa | 0 mm | - | - | - |
| 1788540910 | 32.78° C | 72% | 1016.6 hPa | 0 mm | - | - | - |
| 1788540609 | 32.78° C | 74% | 1016.5 hPa | 0 mm | - | - | - |
| 1788540309 | 32.78° C | 73% | 1016.6 hPa | 0 mm | - | - | - |
| 1788540018 | 32.78° C | 73% | 1016.7 hPa | 0 mm | - | - | - |
| 1788539709 | 32.22° C | 75% | 1016.7 hPa | 0 mm | - | - | - |
| 1788539409 | 32.22° C | 75% | 1016.8 hPa | 0 mm | - | - | - |
* Rain latest hour (hover to see other rain measurements)
** Current wind speed in m/s (hover to see current wind gust speed)